Dewpoint
71 72 73 75 75 75 75 75 75 75 76 76 76 76 76 76 75 75 75 75 76 76 76 76 76 76 76 76 76 76 76 76 76 76 76 76 76 76 75 75 75 75 75 75 75 75 76 76 75 75 75 75 75 75 75 75 75 74 74 75 74 74 75 75 73 74 74 74 74 75 75 75 75 75 75 75 75 75 75 74 74 73 73 73 74
71 72 73 74 74 75 75 75 75 75 75 76 76 76 76 75 75 75 75 75 76 76 76 76 76 76 76 76 76 76 75 76 76 76 76 76 76 75 74 75 75 75 75 75 75 75 75 75 74 74 75 75 75 75 75 74 74 74 74 75 74 74 74 74 74 74 74 74 75 74 74 74 75 75 74 74 74 75 75 75 74 73 73 74 74
72 73 73 75 75 74 75 76 76 75 75 76 75 75 75 75 75 75 76 76 76 76 76 76 75 76 76 76 76 76 75 75 76 76 76 75 75 75 74 74 75 75 75 75 75 75 75 75 74 74 75 75 75 75 74 74 74 74 74 74 74 75 74 74 74 74 73 75 74 74 75 75 75 75 74 74 74 74 75 74 74 74 72 74 73
72 73 74 75 76 76 75 76 75 75 75 76 75 75 75 75 75 75 76 75 75 76 76 75 75 75 75 75 76 75 75 75 75 76 76 75 75 75 75 76 74 75 75 75 75 74 75 75 75 74 74 74 74 74 74 74 74 74 75 75 74 73 74 74 74 74 75 75 75 74 74 74 75 74 74 75 74 74 74 74 74 74 74 74 74
73 73 74 75 75 76 76 76 75 75 75 75 75 75 75 75 75 75 75 75 75 76 75 75 75 76 75 75 75 75 75 75 75 75 75 75 75 75 75 75 75 74 74 75 75 75 75 75 74 74 73 74 74 73 74 74 74 74 75 75 75 74 74 74 74 73 74 75 75 74 73 74 74 74 74 75 74 73 74 74 74 74 74 74 74
73 74 74 75 75 76 76 76 75 75 75 76 76 75 75 75 75 75 75 75 76 75 74 75 75 75 75 75 75 74 74 75 75 75 75 75 75 75 74 75 74 74 74 73 74 74 74 74 74 74 74 74 73 74 74 75 75 75 75 75 75 74 74 74 74 74 75 75 75 74 73 73 73 74 74 74 74 74 74 74 74 74 74 74 73
74 74 74 75 75 76 76 76 75 76 75 76 76 75 75 75 75 76 75 75 75 74 74 74 74 74 74 75 75 75 75 75 75 75 75 75 75 75 75 74 75 74 74 73 74 74 74 74 74 74 74 74 75 74 75 75 75 75 75 75 75 74 74 74 75 75 75 73 73 74 73 74 73 74 74 74 73 74 74 74 74 74 74 74 74
74 74 75 75 75 76 76 76 75 76 76 76 75 75 75 75 76 75 75 75 75 74 74 74 74 74 74 75 75 75 75 75 75 75 75 75 75 74 74 74 73 74 73 73 74 75 74 74 74 75 74 74 74 73 75 75 75 75 75 74 74 74 74 75 75 74 75 73 73 73 74 73 73 73 73 73 74 74 74 74 74 74 74 75 74
74 74 75 75 75 76 76 76 76 76 76 76 76 76 76 75 75 75 75 75 75 75 75 74 74 74 74 74 74 75 75 74 75 75 75 75 75 74 74 74 74 74 74 74 74 74 75 75 74 74 75 74 74 74 74 75 74 74 74 74 74 74 74 74 74 75 73 73 73 74 74 74 72 72 73 74 74 73 73 73 73 74 74 74 74
74 74 74 74 75 76 76 76 76 76 76 76 76 75 76 76 76 75 75 74 74 74 74 74 73 74 74 74 75 75 74 75 74 74 74 75 74 74 74 74 73 73 73 74 74 74 74 74 75 75 75 74 74 75 74 74 74 74 74 74 74 74 75 74 75 75 73 74 74 75 75 74 73 73 73 73 73 73 73 74 73 73 73 73 73
74 74 75 75 75 76 76 76 76 76 76 75 75 76 76 75 75 75 75 73 74 73 73 73 73 74 74 74 75 75 74 74 74 75 74 74 74 74 74 74 73 73 73 74 74 75 75 74 75 75 75 74 75 75 74 74 74 74 74 74 74 74 74 74 75 73 73 73 74 74 74 75 74 74 73 73 73 73 73 73 73 73 73 73 73
74 74 75 75 77 76 76 76 76 76 76 75 75 75 76 75 75 75 75 74 74 74 74 73 73 73 73 74 75 74 74 74 74 74 74 74 74 74 73 74 73 73 74 74 74 75 75 74 74 74 74 75 75 75 75 75 75 74 74 74 74 74 74 75 73 73 73 73 74 73 73 73 74 72 73 73 73 74 73 73 73 73 73 73 73
74 75 75 76 76 76 76 76 76 76 75 75 75 75 75 75 75 75 75 75 74 74 73 73 73 73 74 74 74 74 74 74 74 74 74 74 73 74 74 73 73 73 73 74 74 75 74 74 74 74 75 75 74 74 74 74 75 75 74 74 74 74 75 74 73 73 73 73 73 73 73 74 74 74 73 73 73 73 73 73 73 73 73 73 73
74 75 75 76 76 76 76 76 76 75 75 75 75 75 75 74 75 75 75 74 74 74 73 74 73 74 74 74 74 74 74 74 74 74 74 74 74 74 74 74 73 73 73 74 74 74 74 74 74 74 75 75 74 74 74 74 74 74 74 74 74 74 75 74 74 73 74 74 74 74 74 75 74 75 73 73 73 73 73 73 73 73 73 73 73
74 75 75 75 75 76 76 75 75 75 76 75 75 75 75 75 75 75 75 75 74 73 73 73 73 74 74 74 73 74 74 74 74 74 74 74 74 73 74 74 73 73 73 74 74 74 75 74 74 75 75 75 74 74 74 74 74 74 74 74 74 75 75 73 73 73 73 74 74 73 73 75 73 73 73 73 72 73 73 73 73 73 72 72 72
75 75 75 75 75 76 76 75 75 75 75 75 75 75 75 75 75 75 75 74 74 74 74 74 73 74 74 74 74 74 74 74 74 74 74 74 74 74 74 74 73 74 74 74 74 74 74 74 75 75 74 74 74 73 73 73 73 74 74 74 74 74 75 74 73 73 73 73 74 74 73 73 73 73 73 73 73 73 73 73 73 73 73 72 72
75 75 74 75 75 76 76 76 75 75 75 74 74 75 75 75 75 75 75 75 74 73 74 73 74 74 74 74 74 74 74 74 74 74 74 74 74 74 74 74 74 74 73 74 74 74 74 74 75 74 74 74 73 73 72 71 74 73 73 74 74 74 74 74 73 73 74 74 74 74 74 74 73 73 73 73 73 73 73 72 72 72 72 72 72
74 74 74 75 75 75 75 75 75 74 75 76 75 76 75 75 74 75 75 75 74 74 74 74 75 74 74 74 74 74 74 74 75 74 74 74 74 74 74 74 74 74 73 74 74 74 74 74 75 74 74 74 74 73 72 73 73 73 74 74 74 74 74 74 73 74 74 74 74 75 74 73 73 73 73 73 73 73 73 73 73 73 72 73 72
74 74 74 75 75 75 75 75 75 74 74 74 74 75 75 75 75 75 75 74 74 74 74 74 74 74 73 73 74 74 74 74 74 74 74 74 74 74 74 74 74 74 74 73 73 73 74 74 74 74 74 73 74 73 73 73 73 73 73 74 74 74 75 74 74 74 74 74 74 74 74 75 73 73 73 73 73 73 73 73 73 72 72 72 72
74 74 75 75 74 74 74 74 74 74 74 73 73 74 76 75 75 75 75 74 74 74 74 74 74 74 73 73 73 74 73 74 74 74 74 74 74 74 74 75 74 74 73 73 73 73 74 74 74 74 74 74 73 73 73 73 73 73 73 74 74 75 73 73 73 73 73 74 75 74 75 73 73 73 72 72 73 73 73 72 72 72 72 72 72
73 74 75 75 74 74 74 74 74 74 74 73 73 74 75 75 75 75 75 75 74 74 74 74 74 74 73 73 72 72 72 71 73 73 73 73 73 75 75 76 75 75 74 74 73 74 74 74 74 74 74 74 75 75 74 73 74 74 74 73 74 73 73 73 73 74 75 75 75 75 75 73 74 73 73 73 72 73 73 73 72 72 72 71 71
72 73 74 74 74 74 74 74 74 74 74 74 74 74 75 75 74 74 75 75 74 75 75 75 75 74 75 73 73 73 72 72 72 73 72 73 74 74 75 75 75 76 75 75 74 74 74 74 73 73 74 75 76 75 75 76 74 75 74 74 73 73 73 73 73 74 74 74 75 75 74 73 74 74 73 73 73 72 73 72 72 72 72 72 72
72 73 74 74 74 74 74 74 74 74 74 74 74 75 73 74 75 75 75 75 75 74 74 74 73 73 72 73 74 72 73 72 74 74 72 73 74 75 75 76 75 75 75 75 75 75 74 74 74 75 75 76 75 75 75 74 74 75 76 73 73 73 73 73 73 74 74 75 74 75 74 74 74 74 74 73 73 73 73 73 73 73 72 73 72
71 72 73 74 74 74 74 74 74 74 74 74 74 74 74 74 75 75 74 74 74 75 74 74 73 73 72 73 74 74 74 74 75 76 76 75 76 76 77 76 76 76 76 75 77 75 76 76 75 76 76 75 75 75 75 75 73 73 74 73 72 73 73 73 73 73 74 75 74 77 75 74 74 74 74 73 73 73 73 73 73 73 73 73 73
71 73 73 73 74 73 74 74 74 74 74 75 74 74 74 74 74 74 74 74 74 74 74 74 75 74 75 75 74 74 74 74 74 74 74 74 74 74 74 74 74 75 76 74 74 75 75 74 74 75 74 75 75 75 75 75 74 73 73 72 72 73 72 73 73 73 74 75 75 75 75 75 75 74 74 73 73 73 74 73 73 73 73 73 73
72 72 72 73 73 74 74 74 74 74 74 74 74 75 74 74 74 74 74 74 74 74 74 74 74 75 75 75 75 74 74 74 74 74 74 74 74 74 74 74 74 75 75 74 74 74 74 74 74 74 74 74 74 75 75 76 74 73 72 72 72 73 73 73 73 73 74 74 75 75 75 75 75 74 74 74 73 73 73 73 73 73 74 73 72
72 72 72 73 73 73 74 74 74 74 74 74 75 74 74 74 74 74 74 74 74 74 74 74 74 74 75 75 74 74 73 73 73 73 73 74 74 74 74 74 74 74 75 74 74 74 74 74 74 74 74 73 72 73 74 74 74 73 72 71 72 72 73 72 73 73 73 74 75 76 75 75 74 74 74 73 73 73 73 73 73 73 73 73 73
71 72 72 73 73 73 74 73 74 74 74 75 74 74 74 74 75 75 74 76 74 74 74 74 74 74 76 75 75 73 73 73 73 73 72 73 73 73 73 73 73 73 74 74 74 74 74 74 74 74 74 73 72 72 72 72 73 74 71 71 72 72 72 72 73 73 73 74 74 76 75 75 75 74 74 74 73 73 73 73 73 73 74 73 73
71 71 72 72 73 73 73 73 74 74 74 75 74 74 74 74 75 74 74 76 73 73 73 74 73 74 74 76 75 73 73 73 72 72 72 72 72 73 73 73 72 72 73 73 73 73 73 73 74 74 74 73 72 72 73 73 73 73 72 71 71 72 72 73 73 73 73 73 74 75 76 75 75 75 74 74 73 73 73 73 73 73 73 73 73
71 71 72 72 73 73 73 73 74 74 74 74 74 74 74 74 74 74 74 76 73 74 74 73 73 73 73 75 75 73 73 73 72 71 72 71 72 71 72 72 72 72 73 72 73 73 73 73 73 73 73 73 73 73 75 73 71 72 72 71 71 71 72 73 73 73 73 73 74 74 76 76 75 75 75 74 74 74 74 74 73 73 73 73 73
71 71 72 72 73 73 73 73 74 75 74 74 74 74 74 74 75 74 75 73 74 74 74 73 73 73 74 75 75 76 73 72 72 72 71 71 71 71 71 72 71 72 73 72 73 74 74 74 74 74 74 74 74 74 74 72 70 69 71 70 70 71 72 73 72 72 72 73 73 74 74 76 76 75 76 75 75 75 75 75 75 74 74 74 73
71 71 72 72 73 73 73 73 74 74 74 74 74 74 74 74 75 74 75 73 74 73 72 73 75 73 75 74 75 75 75 73 73 72 72 72 71 71 71 72 72 73 73 73 74 75 75 75 75 76 76 75 75 73 74 72 70 68 70 70 70 71 72 72 72 72 73 73 73 73 74 74 76 76 76 76 76 76 76 76 76 76 75 75 75
71 71 72 72 72 72 72 73 74 75 74 74 74 74 74 74 74 74 75 74 74 72 72 72 73 74 75 74 75 75 75 73 73 73 76 72 73 72 71 73 73 74 74 75 75 75 73 73 73 75 74 75 73 72 74 70 69 69 69 69 70 70 71 72 72 72 72 73 73 73 73 74 74 75 76 76 76 76 76 76 76 76 76 76 76
70 71 72 72 72 72 73 73 74 74 74 74 74 74 74 74 75 74 75 74 73 72 73 72 73 75 75 74 74 75 74 74 73 73 74 73 73 73 73 73 73 74 75 76 75 74 73 73 74 75 75 73 72 72 73 71 70 69 69 69 70 71 72 71 71 72 72 72 73 73 73 73 74 74 75 76 76 76 77 77 77 77 77 77 77
71 71 71 72 73 72 72 73 74 74 74 74 74 74 73 74 74 74 74 73 73 72 72 72 73 74 75 74 74 76 74 74 73 73 73 73 73 73 74 73 74 75 76 75 76 74 74 73 75 75 73 72 72 74 73 70 71 71 70 69 69 70 71 71 71 71 71 72 72 72 73 73 73 74 74 74 75 75 75 76 76 77 77 77 77
70 70 71 72 72 72 73 72 74 73 74 73 74 74 73 73 74 75 73 73 73 72 72 72 73 74 75 73 74 75 74 74 74 74 73 73 73 73 73 74 75 76 75 75 76 75 74 73 74 75 72 71 73 71 72 71 70 69 69 70 69 71 70 71 70 70 70 71 71 71 72 72 72 72 74 74 74 74 75 75 75 76 76 77 78
70 70 71 71 72 72 73 72 73 73 73 73 73 73 73 73 73 74 73 73 72 71 72 73 74 74 73 73 74 75 74 74 75 76 74 74 74 74 73 74 77 76 75 75 74 75 74 72 73 76 74 73 72 71 71 71 70 69 70 69 68 71 70 71 70 70 69 71 71 70 70 71 71 73 74 73 74 74 73 74 74 75 75 76 77
70 70 71 71 71 72 72 72 73 73 73 73 73 72 73 72 73 74 74 72 71 71 73 74 74 74 74 73 73 75 74 74 75 76 75 75 74 74 74 75 76 76 75 74 74 74 75 74 74 75 75 73 73 71 70 70 68 67 69 67 71 70 70 70 70 72 71 70 71 70 70 70 70 69 70 71 70 73 72 72 73 73 74 75 75
70 70 71 71 72 72 72 72 72 72 72 72 72 72 72 72 72 72 73 72 71 72 74 74 75 75 74 73 74 75 76 74 75 77 76 76 76 74 75 76 76 75 75 74 73 74 75 75 74 75 74 74 75 72 71 73 68 67 70 69 69 71 71 69 71 71 71 69 69 71 70 71 71 71 72 71 71 72 73 73 73 73 73 73 74
70 70 71 71 72 72 72 72 72 71 72 71 72 71 72 72 71 71 71 72 72 74 74 74 75 75 75 75 74 75 75 75 76 77 76 76 75 75 75 77 76 75 74 73 73 74 75 76 73 76 73 73 73 71 70 69 69 68 71 70 68 69 70 72 72 70 71 70 70 71 69 70 71 71 71 72 72 72 73 74 75 74 74 74 74
70 70 70 71 71 72 72 72 72 71 71 71 71 71 70 71 71 70 70 71 72 73 74 74 75 75 76 75 76 76 76 77 77 76 75 77 75 75 76 76 76 76 76 74 74 75 77 76 74 75 73 72 72 72 70 68 68 69 69 68 68 69 71 74 71 70 69 70 70 70 70 69 69 70 71 71 72 72 73 74 74 75 75 75 74
69 70 70 70 71 71 71 72 71 71 71 71 71 71 71 71 70 70 70 71 73 73 73 74 75 75 76 76 76 76 77 77 77 76 76 76 75 75 75 76 76 75 76 76 77 77 75 75 74 73 73 72 71 72 69 68 67 65 65 66 67 67 71 69 67 66 68 68 68 69 69 67 66 66 68 71 71 71 70 72 74 73 75 75 74
68 69 70 70 71 71 71 72 71 71 71 71 71 71 71 71 71 71 71 71 72 74 73 74 75 75 76 77 77 77 77 77 77 77 76 75 75 75 75 75 75 77 75 74 74 74 75 75 74 74 72 72 74 73 70 68 65 70 69 68 65 65 69 67 68 67 65 66 66 66 66 65 64 65 68 69 70 71 69 70 72 73 74 74 74
68 69 69 70 70 71 71 71 71 71 71 72 72 71 71 71 70 72 72 72 72 74 74 74 75 75 76 76 77 77 77 77 77 77 77 76 75 75 75 76 76 77 75 74 75 74 74 75 74 75 72 70 70 71 73 70 71 67 65 66 64 64 63 65 65 66 67 67 67 66 65 65 65 66 69 68 65 69 71 71 71 73 74 74 74
67 68 69 69 69 70 71 71 71 71 71 73 72 71 72 71 72 72 74 73 73 72 73 73 74 75 75 76 76 76 77 77 77 77 77 76 75 75 76 76 76 76 75 75 75 74 75 75 75 74 72 70 70 71 72 73 71 72 68 68 66 64 62 63 63 67 65 65 64 65 68 69 66 67 68 67 68 69 67 68 71 72 73 74 74
67 68 68 69 69 70 70 70 71 71 71 72 72 72 72 70 70 70 70 70 70 70 71 71 73 74 75 75 76 76 76 76 76 77 77 76 76 75 75 75 76 76 76 74 74 75 74 74 74 74 73 72 72 70 69 72 73 76 70 67 70 65 66 66 63 64 68 69 67 66 68 66 65 65 68 67 65 66 70 70 71 72 72 72 73
66 67 68 69 69 70 70 70 70 71 71 72 71 72 70 70 70 70 70 70 70 70 71 72 73 74 75 75 76 76 76 76 76 76 77 77 76 76 75 75 76 76 78 75 75 74 74 74 75 75 74 76 71 71 70 70 71 72 73 72 73 72 67 65 63 67 65 67 67 65 65 66 65 63 62 62 64 65 68 69 69 69 70 72 73
65 67 67 68 69 70 70 70 71 71 71 72 71 72 70 69 69 69 70 70 70 70 71 72 74 75 74 75 75 76 76 76 76 76 76 77 76 76 75 75 75 76 77 75 74 73 74 74 77 75 76 75 72 72 70 70 71 70 73 72 71 72 70 67 66 65 64 63 65 65 66 65 66 63 66 64 63 64 64 68 67 68 71 71 73
65 66 67 68 69 69 70 70 70 71 71 72 71 71 71 70 70 69 70 70 70 70 72 73 73 75 74 74 74 75 76 76 76 75 76 76 77 76 75 76 76 75 77 76 75 75 75 74 75 75 75 74 73 73 72 71 71 71 72 72 71 70 68 69 70 70 69 64 65 64 66 67 67 67 67 66 66 66 67 67 69 71 74 74 75
65 66 67 67 68 69 70 70 70 70 71 72 71 71 72 71 69 69 69 70 71 71 71 72 73 74 73 73 74 74 75 75 75 75 76 76 77 77 75 75 75 75 77 76 76 76 75 75 75 74 74 74 76 75 75 72 73 74 72 72 71 71 70 69 68 67 65 66 66 63 65 65 67 69 69 69 69 68 67 69 69 68 71 73 75
65 66 66 67 68 69 69 70 70 70 71 71 71 71 71 70 69 69 69 69 70 70 70 70 72 72 72 72 73 74 74 74 75 75 75 76 76 77 76 75 75 77 77 76 76 75 74 74 75 75 76 75 74 76 75 75 74 75 73 73 72 70 70 68 69 68 65 66 66 64 64 65 66 66 70 70 71 65 67 69 68 68 73 73 76